Regional Weather Roundup
Issued by NWS

Home | Current Version | Previous Version | Text Only | Print | Product List | Glossary Off
Versions: 1 2 3 4 5 6 7 8 9 10 11 12 13 14 15 16 17 18 19 20 21 22 23 24 25 26 27 28 29 30 31 32 33 34 35 36 37 38 39 40 41 42 43 44 45 46 47 48 49 50

000
ASUS45 KCYS 211110
RWRWY

WYOMING REGIONAL WEATHER ROUNDUP
NATIONAL WEATHER SERVICE CHEYENNE WY
500 AM MDT THU MAY 21 2015

NOTE:  "FAIR" INDICATES FEW OR NO CLOUDS BELOW 12,000 FEET
WITH NO SIGNIFICANT WEATHER AND/OR OBSTRUCTIONS TO VISIBILITY.

WYZ001-211200-
YELLOWSTONE NATIONAL PARK

CITY           SKY/WX    TMP DP  RH WIND       PRES   REMARKS
LK YELLOWSTONE   N/A     36  32  85 CALM      30.17F
W YELLOWSTONE  NOT AVBL

$$
WYZ002>013-054>058-071-098>099-211200-
NORTHERN WYOMING

CITY           SKY/WX    TMP DP  RH WIND       PRES   REMARKS
JACKSON        CLOUDY    41  39  93 CALM      30.13S
CODY           CLOUDY    39  37  93 SE3       30.13S
GREYBULL       FAIR      41  36  82 SE3       30.14S
WORLAND        FAIR      41  34  76 S10       30.14S
SHERIDAN       FAIR      32  30  92 W3        30.15F
BUFFALO        FAIR      37  34  89 S10       30.17F WCI  30
GILLETTE       FAIR      33  30  88 S10       30.21F WCI  25
HULETT         FAIR      34  30  86 SW7       30.25S WCI  28
NEWCASTLE      FAIR      32  32 100 E5        30.26F WCI  27

$$
WYZ014>020-022>026-101>103-211200-
CENTRAL WYOMING

CITY           SKY/WX    TMP DP  RH WIND       PRES   REMARKS
BIG PINEY      CLOUDY    39  34  82 S7        30.18S WCI  34
PINEDALE       CLOUDY    37  36  93 CALM      30.19S
DUBOIS         CLOUDY    34  32  93 CALM      30.17S
LANDER         FAIR      37  34  89 CALM      30.17R
RIVERTON       FAIR      35  33  92 NW5       30.18R WCI  31
CASPER         CLOUDY    38  34  85 E6        30.19F WCI  33
DOUGLAS        CLOUDY    37  34  89 SE12      30.22S WCI  29

$$
WYZ021-027>030-104>119-211200-
SOUTHERN WYOMING

CITY           SKY/WX    TMP DP  RH WIND       PRES   REMARKS
EVANSTON       FAIR      39  37  92 E12       30.12F WCI  32
KEMMERER       CLOUDY    37  37 100 E7        30.16S WCI  32
FORT BRIDGER   FOG       37  37 100 E6        30.17S VSB 0   WCI  33
ROCK SPRINGS   FAIR      37  36  96 NE7       30.16R WCI  32
DIXON          FAIR      38  35  90 NE6       30.16S WCI  34
RAWLINS        CLOUDY    38  35  89 NE12      30.16F WCI  30
SARATOGA       FOG       36  36 100 W7        30.20R VSB 1/4 WCI  30
LARAMIE        MOCLDY    33  31  92 SE18      30.17S WCI  22
CHEYENNE       FOG       35  35 100 S14       30.22F VSB 1/4 WCI  26
TORRINGTON     CLOUDY    40  36  86 SE8       30.24F WCI  34
PINE BLUFFS    CLOUDY    37  34  87 S9        30.26S WCI  31

$$



USA.gov is the U.S. government's official web portal to all federal, state and local government web resources and services.